When you browse on this site, cookies collect data to enhance your experience and personalize the content and advertising you see.
Visit our Privacy Policy to learn more. By continuing to use the site, you agree to this use of cookies and data.
  • In Slovakia
  • List of Countries
  • For 7 days
  • Water Temperature
  • Weather Map
  • Weather Widgets
  • user-avatar
    Login

    Hourly Weather Ghent

    Today, 25 August, Sunday

    Time Temperature Precipitation Wind Pressure Humidity
    00:00 +21°C° 0 mm 2 mps 762 mmHg 57%
    01:00 +21°C° 0 mm 1 mps 762 mmHg 60%
    02:00 +21°C° 0 mm 1 mps 762 mmHg 62%
    03:00 +20°C° 0 mm 1 mps 762 mmHg 64%
    04:00 +21°C° 0 mm 1 mps 762 mmHg 64%
    05:00 +21°C° 0 mm 1 mps 762 mmHg 65%
    06:00 +22°C° 0 mm 1 mps 763 mmHg 63%
    07:00 +24°C° 0 mm 1 mps 763 mmHg 57%
    08:00 +26°C° 0 mm 1 mps 763 mmHg 51%
    09:00 +28°C° 0 mm 1 mps 763 mmHg 46%
    10:00 +29°C° 0 mm 1 mps 763 mmHg 42%
    11:00 +31°C° 0 mm 1 mps 763 mmHg 39%
    12:00 +32°C° 0 mm 2 mps 763 mmHg 36%
    13:00 +32°C° 0 mm 2 mps 763 mmHg 34%
    14:00 +32°C° 0 mm 2 mps 763 mmHg 33%
    15:00 +34°C° 0 mm 2 mps 763 mmHg 31%
    16:00 +31°C° 0 mm 2 mps 763 mmHg 36%
    17:00 +29°C° 0 mm 2 mps 763 mmHg 42%
    18:00 +28°C° 0 mm 2 mps 763 mmHg 47%
    19:00 +26°C° 0 mm 2 mps 763 mmHg 49%
    20:00 +25°C° 0 mm 2 mps 763 mmHg 51%
    21:00 +24°C° 0 mm 2 mps 763 mmHg 53%
    22:00 +23°C° 0 mm 2 mps 763 mmHg 54%
    23:00 +23°C° 0 mm 2 mps 763 mmHg 55%

    Tomorrow, 26 August, Monday

    Time Temperature Precipitation Wind Pressure Humidity
    00:00 +21°C° 0 mm 2 mps 763 mmHg 56%
    01:00 +21°C° 0 mm 2 mps 763 mmHg 58%
    02:00 +21°C° 0 mm 1 mps 763 mmHg 61%
    03:00 +21°C° 0 mm 1 mps 763 mmHg 63%
    04:00 +21°C° 0 mm 1 mps 763 mmHg 63%
    05:00 +21°C° 0 mm 1 mps 763 mmHg 64%
    06:00 +22°C° 0 mm 1 mps 763 mmHg 64%
    07:00 +24°C° 0 mm 1 mps 763 mmHg 58%
    08:00 +27°C° 0 mm 1 mps 763 mmHg 52%
    09:00 +29°C° 0 mm 2 mps 763 mmHg 46%
    10:00 +30°C° 0 mm 2 mps 763 mmHg 43%
    11:00 +31°C° 0 mm 2 mps 763 mmHg 40%
    12:00 +32°C° 0 mm 2 mps 762 mmHg 37%
    13:00 +34°C° 0 mm 2 mps 762 mmHg 37%
    14:00 +34°C° 0 mm 2 mps 762 mmHg 37%
    15:00 +34°C° 0 mm 2 mps 761 mmHg 37%
    16:00 +32°C° 0 mm 2 mps 761 mmHg 42%
    17:00 +30°C° 0 mm 2 mps 761 mmHg 48%
    18:00 +28°C° 0 mm 2 mps 761 mmHg 53%
    19:00 +27°C° 0 mm 2 mps 761 mmHg 58%
    20:00 +26°C° 0 mm 2 mps 761 mmHg 63%
    21:00 +25°C° 0 mm 2 mps 761 mmHg 68%
    22:00 +24°C° 0 mm 2 mps 761 mmHg 71%
    23:00 +24°C° 0 mm 2 mps 761 mmHg 73%

    Day after tomorrow, 27 August, Tuesday

    Time Temperature Precipitation Wind Pressure Humidity
    00:00 +24°C° 0 mm 2 mps 761 mmHg 76%
    01:00 +23°C° 0 mm 2 mps 761 mmHg 77%
    02:00 +23°C° 0 mm 2 mps 760 mmHg 79%
    03:00 +23°C° 0 mm 2 mps 760 mmHg 81%
    04:00 +23°C° 0 mm 2 mps 760 mmHg 80%
    05:00 +23°C° 0 mm 1 mps 760 mmHg 78%
    06:00 +23°C° 0 mm 1 mps 760 mmHg 77%
    07:00 +26°C° 0 mm 1 mps 760 mmHg 69%
    08:00 +28°C° 0 mm 2 mps 760 mmHg 60%
    09:00 +30°C° 0 mm 2 mps 760 mmHg 51%
    10:00 +31°C° 0 mm 2 mps 760 mmHg 45%
    11:00 +33°C° 0 mm 3 mps 760 mmHg 40%
    12:00 +34°C° 0 mm 3 mps 760 mmHg 34%
    13:00 +34°C° 0 mm 3 mps 759 mmHg 34%
    14:00 +34°C° 0 mm 3 mps 759 mmHg 34%
    15:00 +34°C° 0 mm 3 mps 759 mmHg 34%
    16:00 +33°C° 0 mm 3 mps 759 mmHg 39%
    17:00 +30°C° 0 mm 3 mps 759 mmHg 44%
    18:00 +29°C° 0 mm 2 mps 759 mmHg 49%
    19:00 +28°C° 0 mm 2 mps 759 mmHg 52%
    20:00 +26°C° 0 mm 2 mps 759 mmHg 56%
    21:00 +25°C° 0 mm 2 mps 759 mmHg 60%
    22:00 +24°C° 0 mm 2 mps 759 mmHg 62%
    23:00 +24°C° 0 mm 2 mps 759 mmHg 63%

    28 August, Wednesday

    Time Temperature Precipitation Wind Pressure Humidity
    00:00 +23°C° 0 mm 2 mps 759 mmHg 64%
    01:00 +23°C° 0 mm 2 mps 759 mmHg 64%
    02:00 +23°C° 0 mm 2 mps 759 mmHg 64%
    03:00 +21°C° 0 mm 2 mps 759 mmHg 63%
    04:00 +21°C° 0 mm 2 mps 759 mmHg 64%
    05:00 +21°C° 0 mm 2 mps 759 mmHg 64%
    06:00 +21°C° 0 mm 2 mps 759 mmHg 65%
    07:00 +23°C° 0.1 mm 2 mps 759 mmHg 63%
    08:00 +25°C° 0.1 mm 3 mps 759 mmHg 62%
    09:00 +26°C° 0.1 mm 3 mps 759 mmHg 60%
    10:00 +26°C° 0 mm 3 mps 759 mmHg 61%
    11:00 +25°C° 0 mm 3 mps 759 mmHg 61%
    12:00 +25°C° 0 mm 2 mps 759 mmHg 61%
    13:00 +26°C° 0 mm 3 mps 759 mmHg 61%
    14:00 +26°C° 0 mm 3 mps 759 mmHg 60%
    15:00 +26°C° 0 mm 3 mps 759 mmHg 60%
    16:00 +26°C° 0.1 mm 2 mps 758 mmHg 64%
    17:00 +25°C° 0.1 mm 2 mps 758 mmHg 68%
    18:00 +24°C° 0.1 mm 1 mps 758 mmHg 72%
    19:00 +23°C° 1 mm 1 mps 758 mmHg 77%
    20:00 +22°C° 1 mm 1 mps 758 mmHg 82%
    21:00 +21°C° 1 mm 1 mps 759 mmHg 86%
    22:00 +21°C° 1.8 mm 1 mps 759 mmHg 88%
    23:00 +21°C° 1.8 mm 1 mps 759 mmHg 90%

    29 August, Thursday

    Time Temperature Precipitation Wind Pressure Humidity
    00:00 +21°C° 1.8 mm 1 mps 759 mmHg 91%
    01:00 +20°C° 0.4 mm 1 mps 759 mmHg 91%
    02:00 +19°C° 0.4 mm 2 mps 759 mmHg 91%
    03:00 +18°C° 0.4 mm 2 mps 759 mmHg 90%
    04:00 +18°C° 0 mm 3 mps 759 mmHg 88%
    05:00 +18°C° 0 mm 3 mps 759 mmHg 86%
    06:00 +17°C° 0 mm 4 mps 760 mmHg 83%
    07:00 +19°C° 0 mm 5 mps 760 mmHg 77%
    08:00 +20°C° 0 mm 5 mps 761 mmHg 71%
    09:00 +21°C° 0 mm 6 mps 762 mmHg 65%
    10:00 +22°C° 0 mm 6 mps 762 mmHg 63%
    11:00 +22°C° 0 mm 6 mps 762 mmHg 60%
    12:00 +22°C° 0 mm 6 mps 763 mmHg 58%
    13:00 +22°C° 0 mm 6 mps 763 mmHg 56%
    14:00 +22°C° 0 mm 5 mps 763 mmHg 55%
    15:00 +22°C° 0 mm 5 mps 764 mmHg 53%
    16:00 +21°C° 0 mm 4 mps 764 mmHg 54%
    17:00 +19°C° 0 mm 3 mps 764 mmHg 55%
    18:00 +18°C° 0 mm 2 mps 765 mmHg 56%
    19:00 +17°C° 0 mm 2 mps 765 mmHg 58%
    20:00 +16°C° 0 mm 1 mps 765 mmHg 60%
    21:00 +14°C° 0 mm 0 mps 766 mmHg 62%
    22:00 +14°C° 0 mm 1 mps 766 mmHg 62%
    23:00 +14°C° 0 mm 1 mps 766 mmHg 63%

    30 August, Friday

    Time Temperature Precipitation Wind Pressure Humidity
    00:00 +14°C° 0 mm 1 mps 766 mmHg 64%
    01:00 +13°C° 0 mm 1 mps 766 mmHg 67%
    02:00 +13°C° 0 mm 1 mps 766 mmHg 69%
    03:00 +13°C° 0 mm 1 mps 766 mmHg 72%
    04:00 +13°C° 0 mm 1 mps 766 mmHg 72%
    05:00 +13°C° 0 mm 1 mps 766 mmHg 73%
    06:00 +13°C° 0 mm 2 mps 766 mmHg 73%
    07:00 +16°C° 0 mm 2 mps 766 mmHg 65%
    08:00 +18°C° 0 mm 2 mps 766 mmHg 58%
    09:00 +20°C° 0 mm 2 mps 766 mmHg 50%
    10:00 +21°C° 0 mm 2 mps 766 mmHg 45%
    11:00 +23°C° 0 mm 2 mps 766 mmHg 41%
    12:00 +24°C° 0 mm 2 mps 765 mmHg 36%
    13:00 +24°C° 0 mm 2 mps 765 mmHg 37%
    14:00 +25°C° 0 mm 2 mps 765 mmHg 37%
    15:00 +25°C° 0 mm 2 mps 764 mmHg 37%
    16:00 +23°C° 0 mm 2 mps 764 mmHg 45%
    17:00 +21°C° 0 mm 2 mps 764 mmHg 54%
    18:00 +19°C° 0 mm 2 mps 764 mmHg 62%
    19:00 +18°C° 0 mm 2 mps 764 mmHg 68%
    20:00 +17°C° 0 mm 2 mps 764 mmHg 74%
    21:00 +15°C° 0 mm 1 mps 764 mmHg 79%
    22:00 +15°C° 0 mm 1 mps 764 mmHg 81%
    23:00 +14°C° 0 mm 1 mps 764 mmHg 83%
    Show more